Wind_Speed
13 12 12 13 13 13 12 12 12 12 12 12 12 12 12 11 11 10 8 5 4 3 3 5 6 9 10 11 10 10 8 6 6 6 6 6 6 6 7 8 8 8 8 9
13 12 14 14 13 13 12 12 11 11 11 12 11 10 10 9 9 8 6 5 3 1 2 3 5 7 9 9 8 8 7 6 5 5 4 5 5 6 6 6 6 6 7 7
13 13 14 14 13 12 11 11 11 11 11 11 11 9 9 8 8 6 5 4 2 1 2 3 5 7 7 7 8 7 7 6 5 4 3 3 3 4 4 4 4 5 6 6
14 14 14 14 14 13 11 11 11 10 10 10 10 9 7 7 7 5 4 2 1 2 3 3 5 6 5 6 7 7 7 6 5 4 3 3 2 2 2 2 3 4 5 6
13 14 14 14 14 13 12 11 11 10 11 10 10 8 7 7 7 5 4 3 1 2 3 4 5 5 5 5 7 8 7 6 5 4 3 2 2 1 2 2 3 4 5 6
14 14 14 13 13 12 11 12 11 11 10 9 9 9 8 8 7 6 4 2 1 2 2 3 4 4 5 6 7 7 7 6 5 4 3 2 1 1 1 2 3 4 5 7
13 14 13 12 12 11 11 11 12 11 9 8 8 9 8 7 6 6 4 2 2 3 3 4 4 4 5 6 7 7 7 6 5 4 3 2 1 0 1 3 4 5 6 7
14 13 12 11 11 11 10 10 11 10 9 8 8 8 7 7 6 5 4 3 3 3 4 5 5 5 6 7 7 7 6 5 5 4 3 2 1 1 2 4 5 6 7 8
14 13 13 12 12 12 11 10 10 11 9 9 8 7 7 7 6 5 4 4 4 4 5 6 6 6 6 7 7 7 6 5 4 4 2 1 0 2 3 5 6 7 9 10
15 15 14 14 14 13 12 12 12 12 11 9 8 8 8 7 6 5 4 4 5 5 5 6 6 6 6 6 6 6 5 5 4 3 2 2 2 3 5 6 8 9 11 13
18 18 16 17 16 15 15 14 13 13 13 12 10 8 8 7 6 5 5 5 6 6 6 7 6 6 6 6 5 5 5 4 4 4 4 3 4 5 7 8 10 11 13 15
20 20 18 18 17 17 17 15 15 14 14 13 11 8 8 7 7 7 7 7 7 7 8 8 7 7 7 6 6 5 6 6 6 6 6 6 7 8 9 10 12 13 15 16
23 22 21 19 18 17 17 16 16 15 15 14 13 10 10 10 9 9 9 8 9 9 9 9 9 8 8 7 7 7 7 7 8 8 8 9 9 10 11 13 14 15 17 18
24 22 21 19 18 18 18 17 17 17 16 15 13 12 11 11 11 11 11 10 10 10 11 11 11 10 9 9 9 9 9 9 9 10 10 11 12 13 14 15 16 18 19 20
22 21 19 19 19 20 20 20 19 18 17 16 14 14 12 13 12 12 12 12 11 11 11 12 12 12 11 10 10 10 10 10 11 11 12 13 14 15 16 17 19 20 22 23
22 22 20 20 20 21 21 20 20 19 18 16 14 14 14 14 14 13 12 12 12 12 12 12 13 13 12 11 11 12 12 12 13 13 14 15 16 17 18 20 21 23 24 25
23 22 21 20 20 21 22 19 20 20 19 18 16 14 14 14 15 14 13 13 13 13 13 13 13 13 13 13 13 14 14 15 15 16 16 17 19 20 21 22 24 25 26 27
24 22 22 21 21 22 18 19 19 18 18 17 16 14 15 15 15 15 15 15 15 15 15 15 15 15 15 15 15 16 17 17 18 19 19 20 21 23 24 25 26 27 28 29
23 23 23 23 23 21 19 18 18 18 17 17 17 16 16 17 17 16 16 17 17 17 17 17 17 17 17 17 18 19 19 20 20 21 22 22 23 25 26 27 28 29 30 31
22 22 22 22 22 21 19 19 20 19 19 17 17 17 17 17 17 17 18 19 19 19 19 18 18 19 19 20 21 21 22 22 23 24 24 25 26 27 28 29 30 31 32 32
21 21 21 22 22 20 19 20 20 21 18 19 20 19 19 18 18 18 19 20 21 21 21 20 21 21 21 22 23 24 24 24 25 25 26 27 28 29 30 31 32 33 34 34
21 21 22 22 21 18 18 19 20 20 19 19 20 20 20 20 20 21 21 21 22 23 23 22 22 23 23 24 24 25 25 26 27 27 28 29 30 32 33 33 34 35 36 36
20 21 21 20 19 18 18 19 19 20 20 21 21 21 21 22 23 24 24 24 24 24 24 24 24 24 24 25 25 26 26 27 29 30 31 32 32 33 34 35 36 36 37 38
21 21 22 20 19 19 20 20 20 21 22 22 22 22 22 23 23 25 25 25 25 26 26 26 26 26 26 27 27 27 28 29 31 32 32 33 34 35 36 37 38 39 40 41
19 19 20 20 21 21 21 22 22 23 23 23 23 23 24 25 25 26 27 27 27 27 28 27 27 28 28 28 29 29 30 31 32 33 34 35 36 37 38 40 41 41 42 43
19 19 19 20 21 22 22 22 23 23 23 23 24 24 25 26 26 27 28 28 28 28 29 29 28 28 29 30 30 31 32 33 34 35 37 38 38 39 41 42 43 44 45 46
Wind_Direction
278 277 278 278 281 286 293 301 307 308 309 311 312 311 313 320 329 333 335 320 289 246 240 230 212 202 195 197 194 191 190 205 215 221 231 237 239 251 261 273 278 280 284 290
269 265 269 272 277 284 292 300 306 311 313 313 314 313 316 321 326 333 338 340 328 251 202 201 190 177 182 189 190 185 191 194 197 201 211 228 242 258 269 276 275 280 287 294
263 262 267 269 272 280 289 298 303 308 314 313 313 317 322 330 333 339 341 358 8 128 150 143 158 169 179 182 185 186 185 187 184 183 194 223 247 260 271 277 281 288 296 306
255 257 262 267 268 276 285 294 296 302 307 311 313 316 321 327 335 343 348 358 29 122 125 127 134 154 169 180 189 183 183 183 179 177 191 212 231 256 270 284 302 317 327 329
248 250 257 265 270 275 282 287 289 296 300 303 308 311 322 324 327 327 328 332 30 106 116 120 128 140 149 162 174 167 173 173 178 184 190 196 214 241 272 303 324 332 333 333
242 248 256 263 269 275 280 284 286 290 296 297 299 300 309 312 307 303 298 296 161 141 135 133 132 138 144 152 159 167 174 171 174 177 176 179 205 241 294 319 331 334 333 331
240 246 255 262 267 272 276 282 285 288 291 294 295 297 305 305 299 290 277 248 189 179 169 154 146 142 148 155 159 161 163 166 169 169 164 168 177 230 327 334 334 330 329 329
240 239 250 257 264 266 271 278 286 290 290 286 286 297 303 301 298 288 265 228 202 198 183 170 158 149 150 155 158 156 158 163 162 158 155 148 119 19 337 329 323 322 323 326
240 237 245 251 253 259 262 269 282 288 289 285 286 291 294 291 300 291 265 231 210 196 186 180 168 158 155 159 161 160 162 163 165 168 171 173 276 325 324 325 324 322 322 323
239 238 240 246 251 255 261 266 272 280 287 288 286 289 290 289 293 290 273 243 221 209 197 186 178 173 169 168 171 172 174 179 185 193 212 252 290 306 313 316 318 319 319 320
242 240 238 244 249 254 255 259 265 273 276 281 284 283 281 282 286 279 274 252 227 215 207 201 195 193 193 189 189 191 196 204 217 229 248 270 286 297 307 312 313 315 316 317
245 244 244 246 250 254 255 257 261 268 272 275 275 272 269 275 281 274 274 260 238 225 218 214 212 208 206 206 210 216 221 228 235 246 260 274 285 295 303 308 312 315 317 319
247 246 247 247 252 255 258 261 265 266 269 271 272 269 264 267 270 268 267 256 244 236 229 224 223 220 218 219 224 230 235 241 248 257 267 277 284 291 297 301 306 311 314 316
247 248 248 250 254 256 259 262 266 267 267 268 268 264 261 261 263 262 257 247 240 238 234 230 230 229 230 230 234 241 246 251 258 264 271 278 285 290 294 298 304 308 310 313
248 249 248 249 252 255 259 262 265 269 269 267 261 256 254 255 258 262 256 246 241 239 236 235 234 234 236 239 243 249 254 260 265 271 276 282 287 291 295 298 303 306 308 310
250 247 251 251 251 255 259 261 264 267 267 265 261 257 252 252 255 259 257 250 245 242 240 241 238 238 241 245 250 255 260 265 270 275 281 285 289 292 296 299 302 305 307 308
250 252 251 248 252 257 258 261 265 265 264 264 261 259 253 253 255 254 252 251 248 245 245 244 244 244 246 252 256 260 264 269 273 277 282 286 290 293 296 298 300 302 304 306
249 250 249 249 252 257 261 259 262 264 262 260 259 257 253 252 253 252 249 249 249 249 250 251 251 251 254 258 262 266 270 273 276 279 282 285 289 292 295 297 300 301 303 305
248 251 250 251 253 259 260 259 262 264 263 261 259 257 254 252 252 251 250 249 251 252 252 253 254 257 259 261 264 268 271 274 277 280 282 285 288 291 293 296 298 300 302 303
248 249 249 253 257 261 259 258 259 261 261 260 258 252 249 254 256 254 253 252 252 251 251 256 259 261 263 266 268 269 272 275 277 280 283 286 288 290 293 295 297 299 301 302
246 245 249 256 260 261 258 255 254 257 261 257 254 252 249 252 251 252 255 257 256 254 253 257 261 264 266 270 272 272 276 278 280 282 285 288 289 291 293 295 297 299 300 302
243 244 247 252 256 254 250 250 252 255 254 254 255 255 252 250 250 250 254 256 255 258 257 258 262 266 269 271 273 274 277 280 282 284 287 288 289 291 293 295 297 298 300 301
241 242 241 246 250 251 251 250 250 252 251 252 254 255 254 251 252 251 254 255 255 257 259 260 263 267 270 272 274 275 278 281 283 285 287 289 290 291 293 295 296 298 300 301
245 243 243 246 247 250 250 250 251 251 251 253 254 256 255 251 255 254 256 258 257 256 259 261 264 266 269 271 274 276 279 282 284 285 287 289 290 291 293 295 296 298 299 300
244 243 245 248 250 251 250 249 250 250 252 253 255 256 254 254 256 258 257 257 258 259 260 261 264 266 269 272 274 277 280 282 284 284 287 289 290 292 294 295 296 298 299 299
244 245 248 247 247 250 250 250 251 251 252 254 255 257 255 256 260 259 258 257 257 258 260 262 264 268 270 274 277 279 281 283 284 286 288 289 290 292 293 295 296 298 299 299
Height
5864 5865 5864 5864 5863 5862 5861 5860 5859 5857 5854 5853 5850 5848 5846 5844 5842 5839 5836 5835 5834 5833 5834 5834 5835 5836 5839 5841 5843 5846 5848 5849 5851 5852 5853 5854 5855 5856 5856 5857 5857 5857 5856 5856
5862 5862 5862 5861 5860 5860 5859 5858 5856 5855 5853 5851 5849 5847 5845 5843 5841 5839 5837 5835 5833 5833 5833 5834 5835 5837 5838 5841 5843 5845 5847 5848 5850 5851 5852 5853 5853 5854 5855 5855 5855 5855 5855 5855
5859 5859 5858 5858 5858 5857 5857 5856 5854 5853 5851 5849 5847 5846 5844 5842 5840 5838 5837 5835 5834 5834 5834 5835 5835 5837 5839 5841 5843 5844 5846 5847 5849 5850 5851 5852 5853 5853 5854 5854 5854 5854 5853 5853
5855 5855 5855 5855 5855 5855 5854 5853 5852 5851 5849 5848 5847 5845 5844 5842 5840 5838 5837 5836 5835 5835 5835 5836 5836 5838 5839 5840 5842 5844 5845 5847 5849 5850 5850 5851 5852 5852 5853 5853 5853 5852 5852 5851
5852 5852 5852 5852 5852 5852 5852 5851 5850 5849 5848 5847 5845 5844 5844 5841 5840 5838 5837 5836 5835 5835 5836 5836 5837 5838 5839 5840 5841 5843 5845 5847 5848 5849 5850 5850 5851 5851 5852 5852 5851 5851 5851 5850
5848 5849 5849 5850 5849 5849 5849 5849 5848 5847 5847 5846 5845 5843 5843 5841 5839 5838 5838 5837 5836 5836 5837 5837 5837 5838 5839 5840 5841 5843 5844 5846 5847 5848 5849 5850 5850 5850 5850 5850 5850 5850 5849 5849
5845 5845 5846 5846 5847 5847 5847 5847 5847 5845 5845 5844 5843 5842 5842 5840 5839 5838 5837 5837 5837 5837 5837 5837 5838 5838 5839 5840 5841 5843 5844 5845 5847 5848 5848 5849 5849 5849 5849 5849 5849 5849 5848 5847
5841 5843 5843 5843 5844 5844 5844 5845 5845 5844 5843 5843 5842 5841 5841 5839 5838 5837 5837 5837 5837 5837 5837 5837 5838 5838 5839 5840 5841 5842 5843 5845 5846 5847 5847 5848 5848 5848 5848 5848 5848 5847 5846 5845
5838 5840 5840 5840 5841 5842 5842 5842 5843 5842 5841 5841 5841 5841 5840 5838 5837 5836 5836 5836 5837 5837 5837 5838 5838 5838 5839 5840 5841 5842 5843 5844 5845 5846 5846 5847 5847 5847 5847 5847 5846 5845 5844 5843
5834 5836 5837 5837 5838 5839 5840 5840 5840 5840 5839 5839 5839 5839 5839 5837 5836 5836 5836 5836 5836 5837 5837 5837 5838 5839 5839 5840 5841 5842 5842 5843 5844 5845 5845 5846 5846 5846 5845 5845 5844 5843 5842 5840
5829 5832 5834 5834 5835 5835 5837 5837 5837 5837 5837 5837 5837 5839 5837 5836 5836 5835 5835 5835 5835 5836 5836 5837 5838 5838 5839 5839 5840 5841 5841 5842 5843 5843 5844 5844 5844 5843 5843 5842 5841 5840 5838 5837
5825 5827 5829 5830 5831 5832 5832 5833 5834 5834 5834 5834 5835 5838 5835 5835 5834 5834 5834 5834 5834 5835 5835 5836 5837 5837 5838 5838 5839 5840 5840 5841 5841 5842 5841 5841 5841 5841 5840 5839 5838 5836 5835 5833
5820 5822 5824 5826 5828 5828 5828 5829 5830 5831 5831 5831 5832 5836 5833 5833 5833 5832 5832 5832 5833 5834 5834 5835 5835 5836 5836 5837 5837 5838 5838 5839 5839 5839 5839 5838 5838 5837 5836 5835 5834 5832 5830 5828
5815 5816 5819 5821 5822 5823 5824 5825 5826 5827 5827 5828 5829 5830 5831 5830 5830 5830 5830 5830 5831 5832 5832 5833 5833 5834 5834 5834 5835 5836 5836 5836 5836 5836 5835 5835 5834 5833 5832 5831 5829 5828 5826 5824
5809 5811 5812 5814 5816 5818 5819 5820 5821 5822 5823 5824 5825 5826 5827 5827 5828 5828 5828 5828 5829 5829 5830 5831 5831 5831 5832 5832 5832 5833 5833 5833 5833 5832 5832 5831 5830 5829 5828 5826 5824 5823 5821 5818
5803 5806 5807 5809 5811 5812 5813 5815 5816 5817 5818 5819 5821 5823 5824 5824 5824 5825 5825 5825 5826 5826 5827 5827 5828 5828 5829 5829 5829 5829 5829 5829 5829 5828 5827 5826 5825 5824 5822 5821 5819 5817 5815 5812
5798 5800 5802 5804 5806 5806 5807 5810 5811 5812 5814 5815 5817 5820 5820 5821 5821 5821 5822 5822 5823 5823 5824 5824 5824 5825 5825 5825 5825 5825 5825 5825 5824 5823 5822 5821 5820 5818 5817 5815 5813 5811 5809 5806
5792 5795 5797 5799 5801 5801 5805 5805 5805 5807 5808 5810 5812 5814 5815 5816 5817 5817 5818 5818 5819 5820 5820 5820 5820 5821 5821 5821 5821 5821 5820 5820 5819 5818 5817 5815 5814 5812 5810 5809 5806 5804 5802 5799
5786 5789 5791 5793 5794 5795 5798 5799 5800 5802 5803 5805 5807 5808 5810 5811 5812 5813 5813 5814 5814 5815 5815 5816 5816 5816 5816 5816 5816 5815 5815 5814 5813 5812 5810 5809 5807 5805 5804 5802 5799 5797 5794 5791
5781 5783 5786 5787 5788 5790 5794 5794 5794 5797 5798 5800 5801 5803 5804 5805 5807 5808 5808 5808 5809 5809 5810 5810 5811 5811 5811 5811 5810 5809 5809 5808 5807 5805 5804 5802 5800 5798 5796 5794 5792 5789 5786 5783
5775 5777 5779 5781 5782 5785 5787 5788 5789 5792 5795 5795 5795 5797 5798 5799 5801 5802 5802 5803 5803 5803 5804 5804 5804 5805 5804 5804 5804 5803 5802 5801 5800 5798 5797 5795 5793 5791 5789 5786 5784 5781 5778 5775
5769 5771 5773 5775 5777 5781 5781 5781 5783 5785 5787 5788 5789 5791 5792 5793 5794 5795 5795 5796 5797 5797 5797 5797 5798 5798 5798 5797 5796 5796 5795 5794 5793 5791 5789 5787 5785 5783 5781 5778 5775 5772 5769 5766
5763 5766 5767 5770 5774 5774 5774 5776 5777 5779 5780 5782 5783 5784 5785 5786 5787 5788 5788 5789 5789 5790 5790 5790 5791 5790 5790 5790 5789 5788 5787 5786 5785 5783 5781 5779 5777 5774 5772 5769 5766 5763 5760 5756
5757 5759 5762 5764 5767 5767 5768 5770 5771 5773 5774 5775 5776 5778 5779 5779 5780 5781 5781 5781 5782 5782 5783 5783 5783 5783 5782 5782 5781 5780 5779 5778 5776 5774 5772 5770 5768 5765 5763 5760 5756 5753 5750 5746
5751 5753 5755 5758 5760 5761 5762 5763 5765 5766 5767 5768 5769 5770 5771 5772 5772 5773 5774 5774 5774 5775 5775 5775 5775 5775 5774 5774 5773 5772 5771 5769 5767 5765 5763 5761 5759 5756 5753 5750 5746 5742 5739 5734
5745 5747 5749 5751 5753 5755 5756 5757 5758 5759 5760 5761 5762 5762 5763 5764 5764 5765 5765 5766 5766 5767 5767 5767 5767 5767 5766 5765 5764 5763 5762 5760 5758 5756 5754 5751 5749 5746 5742 5739 5735 5731 5727 5723